NORTHEAST SUFFOLK  -  Freeze Watch Freeze Watch        NORTHWEST SUFFOLK  -  Freeze Watch Freeze Watch        SOUTHEAST SUFFOLK  -  Freeze Watch Freeze Watch        SOUTHWEST SUFFOLK  -  Freeze Watch Freeze Watch      

Active alerts

Northwest Suffolk
  Details for Northwest Suffolk Freeze Watch
Southwest Suffolk
  Details for Southwest Suffolk Freeze Watch
Northeast Suffolk
  Details for Northeast Suffolk Freeze Watch
Southeast Suffolk
  Details for Southeast Suffolk Freeze Watch


WXM80 ListenWXM80 Stop

You find our weather info also at:

UK Metoffice

WeatherCloud

Weather Underground

Northeastern Weather Network

AWEKAS

Citizen Weather Observer Program (CWOP)

HAMweather, WeatherForYou, PWS Weather


Weather Underground History page Text

Daily Summary for October 6, 2016 Units:  English    Metric   Both
« Previous Day
Next Day »
Daily Weekly Monthly Yearly Custom
  High: Low: Average:
Temperature: 74.3 °F 52.3 °F 61.2 °F
Dew Point: 60.2 °F 50.4 °F 54.8 °F
Humidity: 97 % 47 % 82 %
Wind Speed: 3.6 mph 0.0 mph 0.5 mph
Wind Gust: 7.0 mph - -
Wind:- - East
Pressure: 30.31 in 30.24 in -
Precipitation: 0.00 in    
Historical Graphs
 
 
Tabular Data for October 6, 2016
Time Temperature Dew Point Pressure Wind Wind Speed Wind Gust Humidity Rainfall Rate (Hourly)
00:01 53.8 °F 51.8 °F 30.27 in Calm     93 % 0.00 in
00:06 53.9 °F 51.9 °F 30.27 in Calm     93 % 0.00 in
00:11 53.9 °F 51.9 °F 30.27 in Calm     93 % 0.00 in
00:16 54.0 °F 52.0 °F 30.26 in Calm     93 % 0.00 in
00:21 54.1 °F 52.4 °F 30.27 in Calm     94 % 0.00 in
00:26 54.1 °F 52.4 °F 30.27 in Calm     94 % 0.00 in
00:31 54.2 °F 52.5 °F 30.26 in Calm     94 % 0.00 in
00:36 54.2 °F 52.5 °F 30.27 in Calm     94 % 0.00 in
00:46 54.3 °F 52.9 °F 30.26 in Calm     95 % 0.00 in
00:51 54.4 °F 53.0 °F 30.26 in Calm     95 % 0.00 in
00:56 54.5 °F 53.1 °F 30.27 in Calm     95 % 0.00 in
01:01 54.6 °F 53.2 °F 30.27 in Calm     95 % 0.00 in
01:06 54.6 °F 53.2 °F 30.27 in Calm     95 % 0.00 in
01:11 54.7 °F 53.3 °F 30.27 in Calm     95 % 0.00 in
01:16 54.8 °F 53.4 °F 30.27 in Calm     95 % 0.00 in
01:21 55.0 °F 53.6 °F 30.27 in Calm     95 % 0.00 in
01:26 55.0 °F 53.6 °F 30.27 in Calm     95 % 0.00 in
01:31 55.0 °F 53.6 °F 30.27 in Calm     95 % 0.00 in
01:36 55.0 °F 53.6 °F 30.27 in Calm     95 % 0.00 in
01:41 55.1 °F 53.7 °F 30.27 in Calm     95 % 0.00 in
01:46 55.1 °F 53.7 °F 30.27 in Calm     95 % 0.00 in
01:51 55.1 °F 53.7 °F 30.27 in Calm     95 % 0.00 in
01:56 55.1 °F 53.7 °F 30.28 in Calm     95 % 0.00 in
02:01 55.0 °F 53.6 °F 30.28 in Calm     95 % 0.00 in
02:06 55.0 °F 53.6 °F 30.28 in Calm     95 % 0.00 in
02:11 54.9 °F 53.2 °F 30.27 in Calm     94 % 0.00 in
02:16 54.8 °F 53.1 °F 30.27 in Calm     94 % 0.00 in
02:21 54.7 °F 53.0 °F 30.27 in Calm     94 % 0.00 in
02:26 54.6 °F 52.9 °F 30.27 in Calm     94 % 0.00 in
02:31 54.5 °F 52.5 °F 30.27 in Calm     93 % 0.00 in
02:36 54.4 °F 52.4 °F 30.27 in Calm     93 % 0.00 in
02:41 54.3 °F 52.3 °F 30.27 in Calm     93 % 0.00 in
02:46 54.2 °F 52.2 °F 30.27 in Calm     93 % 0.00 in
02:51 54.1 °F 52.1 °F 30.26 in Calm     93 % 0.00 in
02:56 54.0 °F 52.0 °F 30.27 in Calm     93 % 0.00 in
03:01 53.8 °F 51.8 °F 30.26 in Calm     93 % 0.00 in
03:06 53.7 °F 51.7 °F 30.26 in Calm   1.0 mph 93 % 0.00 in
03:11 53.6 °F 51.7 °F 30.26 in Calm   1.0 mph 93 % 0.00 in
03:16 53.6 °F 51.6 °F 30.26 in Calm     93 % 0.00 in
03:21 53.5 °F 51.8 °F 30.26 in Calm     94 % 0.00 in
03:26 53.5 °F 51.8 °F 30.26 in SE 1.0 mph 2.0 mph 94 % 0.00 in
03:31 53.4 °F 51.7 °F 30.26 in Calm   1.0 mph 94 % 0.00 in
03:36 53.4 °F 51.7 °F 30.26 in SE 0.2 mph 1.0 mph 94 % 0.00 in
03:41 53.3 °F 51.6 °F 30.26 in Calm   1.0 mph 94 % 0.00 in
03:46 53.2 °F 51.2 °F 30.26 in Calm   3.0 mph 93 % 0.00 in
03:51 53.1 °F 51.1 °F 30.26 in Calm     93 % 0.00 in
03:56 53.0 °F 51.0 °F 30.26 in Calm   1.0 mph 93 % 0.00 in
04:01 52.8 °F 50.8 °F 30.26 in Calm     93 % 0.00 in
04:06 52.8 °F 50.8 °F 30.26 in Calm   2.0 mph 93 % 0.00 in
04:11 52.7 °F 50.7 °F 30.26 in SE 1.0 mph 1.0 mph 93 % 0.00 in
04:16 52.6 °F 50.6 °F 30.26 in Calm   1.0 mph 93 % 0.00 in
04:21 52.5 °F 50.5 °F 30.26 in Calm     93 % 0.00 in
04:26 52.4 °F 50.4 °F 30.26 in Calm     93 % 0.00 in
04:31 52.4 °F 50.4 °F 30.26 in Calm     93 % 0.00 in
04:36 52.4 °F 50.4 °F 30.26 in Calm   1.0 mph 93 % 0.00 in
04:41 52.3 °F 50.6 °F 30.26 in Calm     94 % 0.00 in
04:46 52.3 °F 50.6 °F 30.26 in Calm     94 % 0.00 in
04:51 52.3 °F 50.6 °F 30.26 in Calm   1.0 mph 94 % 0.00 in
04:56 52.3 °F 50.6 °F 30.26 in Calm     94 % 0.00 in
05:01 52.3 °F 50.6 °F 30.26 in SE 0.2 mph 1.2 mph 94 % 0.00 in
05:06 52.3 °F 50.6 °F 30.26 in SE 0.1 mph 1.2 mph 94 % 0.00 in
05:11 52.3 °F 50.6 °F 30.26 in Calm     94 % 0.00 in
05:16 52.3 °F 50.6 °F 30.26 in Calm   1.0 mph 94 % 0.00 in
05:21 52.4 °F 51.0 °F 30.26 in Calm     95 % 0.00 in
05:26 52.4 °F 51.0 °F 30.26 in Calm     95 % 0.00 in
05:31 52.6 °F 51.2 °F 30.26 in SE 0.1 mph 1.2 mph 95 % 0.00 in
05:36 52.7 °F 51.3 °F 30.27 in Calm   1.0 mph 95 % 0.00 in
05:41 52.8 °F 51.4 °F 30.26 in Calm     95 % 0.00 in
05:46 52.8 °F 51.7 °F 30.27 in Calm     96 % 0.00 in
05:52 52.9 °F 51.8 °F 30.27 in Calm     96 % 0.00 in
05:57 53.1 °F 52.0 °F 30.27 in SE 0.8 mph 3.5 mph 96 % 0.00 in
06:02 53.2 °F 52.1 °F 30.27 in Calm     96 % 0.00 in
06:07 53.4 °F 52.3 °F 30.27 in Calm     96 % 0.00 in
06:12 53.6 °F 52.5 °F 30.27 in Calm     96 % 0.00 in
06:17 53.7 °F 52.6 °F 30.27 in Calm   1.2 mph 96 % 0.00 in
06:22 53.9 °F 52.8 °F 30.27 in SE 0.3 mph 1.0 mph 96 % 0.00 in
06:27 54.0 °F 52.9 °F 30.27 in Calm     96 % 0.00 in
06:32 54.1 °F 53.0 °F 30.27 in Calm     96 % 0.00 in
06:37 54.3 °F 53.2 °F 30.27 in Calm     96 % 0.00 in
06:43 54.4 °F 53.6 °F 30.27 in SE 0.6 mph 2.3 mph 97 % 0.00 in
06:48 54.5 °F 53.7 °F 30.28 in SE 0.5 mph 1.2 mph 97 % 0.00 in
06:53 54.6 °F 53.8 °F 30.28 in SE 0.2 mph 1.2 mph 97 % 0.00 in
06:58 54.6 °F 53.8 °F 30.28 in Calm     97 % 0.00 in
07:03 54.7 °F 53.9 °F 30.28 in Calm     97 % 0.00 in
07:08 54.8 °F 54.0 °F 30.28 in Calm   1.0 mph 97 % 0.00 in
07:13 54.9 °F 54.1 °F 30.28 in Calm     97 % 0.00 in
07:18 55.0 °F 54.2 °F 30.28 in Calm     97 % 0.00 in
07:23 55.1 °F 54.3 °F 30.28 in Calm     97 % 0.00 in
07:28 55.3 °F 54.5 °F 30.28 in Calm     97 % 0.00 in
07:34 55.5 °F 54.7 °F 30.29 in Calm     97 % 0.00 in
07:39 55.6 °F 54.8 °F 30.29 in Calm     97 % 0.00 in
07:44 55.8 °F 55.0 °F 30.29 in Calm     97 % 0.00 in
07:49 55.9 °F 55.1 °F 30.29 in Calm     97 % 0.00 in
07:54 56.0 °F 55.2 °F 30.29 in Calm     97 % 0.00 in
07:59 56.1 °F 55.3 °F 30.29 in Calm     97 % 0.00 in
08:04 56.4 °F 55.6 °F 30.29 in Calm   2.3 mph 97 % 0.00 in
08:09 56.6 °F 55.8 °F 30.29 in North 0.5 mph 2.3 mph 97 % 0.00 in
08:14 56.9 °F 56.1 °F 30.29 in North 1.9 mph 3.5 mph 97 % 0.00 in
08:19 57.2 °F 56.4 °F 30.29 in NNE 2.0 mph 3.5 mph 97 % 0.00 in
08:25 57.5 °F 56.7 °F 30.29 in NNE 0.3 mph 3.5 mph 97 % 0.00 in
08:30 57.7 °F 56.9 °F 30.29 in NNE 0.5 mph 3.5 mph 97 % 0.00 in
08:35 57.9 °F 57.1 °F 30.30 in North 1.4 mph 3.5 mph 97 % 0.00 in
08:40 58.1 °F 57.3 °F 30.29 in North 0.2 mph 1.2 mph 97 % 0.00 in
08:45 58.3 °F 57.5 °F 30.29 in NE 0.5 mph 2.3 mph 97 % 0.00 in
08:50 58.5 °F 57.7 °F 30.30 in North 2.3 mph 3.5 mph 97 % 0.00 in
08:55 58.5 °F 57.7 °F 30.30 in ENE 2.3 mph 3.5 mph 97 % 0.00 in
09:00 58.6 °F 57.8 °F 30.30 in NNE 1.9 mph 3.5 mph 97 % 0.00 in
09:05 58.7 °F 57.9 °F 30.30 in North 1.8 mph 3.5 mph 97 % 0.00 in
09:11 58.9 °F 57.8 °F 30.30 in WNW 0.6 mph 3.5 mph 96 % 0.00 in
09:16 58.9 °F 57.8 °F 30.30 in North 2.0 mph 6.0 mph 96 % 0.00 in
09:21 59.1 °F 57.7 °F 30.30 in North 3.0 mph 7.0 mph 95 % 0.00 in
09:31 59.5 °F 57.8 °F 30.30 in North 2.0 mph 6.0 mph 94 % 0.00 in
09:36 59.7 °F 57.7 °F 30.30 in NNE 3.0 mph 6.0 mph 93 % 0.00 in
09:41 59.9 °F 57.6 °F 30.30 in Calm   6.0 mph 92 % 0.00 in
09:46 60.1 °F 57.8 °F 30.30 in North 1.0 mph 5.0 mph 92 % 0.00 in
09:51 60.3 °F 57.7 °F 30.31 in NNE 1.0 mph 4.0 mph 91 % 0.00 in
09:56 60.5 °F 57.9 °F 30.30 in NNE 1.1 mph 3.5 mph 91 % 0.00 in
10:01 60.8 °F 57.8 °F 30.31 in NNE 0.6 mph 3.5 mph 90 % 0.00 in
10:06 61.1 °F 58.1 °F 30.31 in WNW 1.3 mph 4.6 mph 90 % 0.00 in
10:11 61.4 °F 58.1 °F 30.30 in NW 2.6 mph 3.5 mph 89 % 0.00 in
10:16 61.8 °F 57.9 °F 30.30 in NNE 2.5 mph 4.6 mph 87 % 0.00 in
10:21 62.0 °F 58.1 °F 30.30 in NNE 1.1 mph 3.5 mph 87 % 0.00 in
10:26 62.1 °F 57.9 °F 30.30 in NNE 0.7 mph 1.2 mph 86 % 0.00 in
10:31 62.2 °F 58.0 °F 30.30 in ENE 1.6 mph 2.3 mph 86 % 0.00 in
10:36 62.3 °F 57.7 °F 30.30 in ENE 0.3 mph 3.5 mph 85 % 0.00 in
10:41 62.6 °F 58.4 °F 30.30 in NNE 2.5 mph 3.5 mph 86 % 0.00 in
10:47 62.8 °F 58.2 °F 30.30 in ENE 1.0 mph 2.3 mph 85 % 0.00 in
10:52 63.1 °F 58.2 °F 30.30 in ENE 1.4 mph 3.5 mph 84 % 0.00 in
10:57 63.2 °F 57.9 °F 30.29 in ENE 0.7 mph 3.0 mph 83 % 0.00 in
11:02 63.5 °F 58.2 °F 30.30 in ENE 2.1 mph 3.5 mph 83 % 0.00 in
11:07 64.0 °F 59.1 °F 30.30 in NNE 3.1 mph 4.0 mph 84 % 0.00 in
11:12 64.9 °F 58.9 °F 30.29 in ENE 1.2 mph 3.5 mph 81 % 0.00 in
11:17 65.6 °F 58.9 °F 30.29 in NE 2.3 mph 3.5 mph 79 % 0.00 in
11:22 66.5 °F 59.1 °F 30.29 in North 2.1 mph 4.0 mph 77 % 0.00 in
11:27 67.2 °F 59.4 °F 30.29 in NNE 3.1 mph 4.6 mph 76 % 0.00 in
11:32 67.8 °F 59.2 °F 30.29 in NNE 3.6 mph 4.6 mph 74 % 0.00 in
11:38 68.4 °F 59.4 °F 30.29 in NE 2.2 mph 5.8 mph 73 % 0.00 in
11:43 69.1 °F 59.7 °F 30.29 in NNE 1.3 mph 2.3 mph 72 % 0.00 in
11:48 69.6 °F 59.4 °F 30.29 in NNE 2.7 mph 5.8 mph 70 % 0.00 in
11:53 69.9 °F 59.7 °F 30.29 in North 0.5 mph 3.5 mph 70 % 0.00 in
11:58 70.3 °F 60.1 °F 30.29 in NE 3.4 mph 5.8 mph 70 % 0.00 in
12:03 70.6 °F 59.9 °F 30.29 in NE 2.8 mph 6.9 mph 69 % 0.00 in
12:08 70.6 °F 59.9 °F 30.29 in ENE 1.6 mph 4.6 mph 69 % 0.00 in
12:13 70.7 °F 59.6 °F 30.29 in North 1.8 mph 3.5 mph 68 % 0.00 in
12:18 70.9 °F 59.8 °F 30.29 in North 1.3 mph 3.5 mph 68 % 0.00 in
12:23 71.3 °F 60.2 °F 30.29 in ENE 1.8 mph 3.0 mph 68 % 0.00 in
12:34 71.6 °F 59.6 °F 30.28 in ENE 0.5 mph 3.5 mph 66 % 0.00 in
12:39 71.9 °F 58.6 °F 30.28 in NE 1.4 mph 3.5 mph 63 % 0.00 in
12:44 71.9 °F 58.2 °F 30.28 in NE 1.2 mph 2.3 mph 62 % 0.00 in
12:49 71.9 °F 58.2 °F 30.28 in ENE 1.3 mph 3.0 mph 62 % 0.00 in
12:54 72.0 °F 58.3 °F 30.28 in NE 0.5 mph 3.5 mph 62 % 0.00 in
13:04 71.9 °F 58.6 °F 30.28 in NE 1.6 mph 3.0 mph 63 % 0.00 in
13:09 72.1 °F 57.9 °F 30.28 in NNE 1.4 mph 3.5 mph 61 % 0.00 in
13:14 72.2 °F 58.0 °F 30.28 in NNE 0.2 mph 3.5 mph 61 % 0.00 in
13:20 72.3 °F 58.5 °F 30.27 in East 1.6 mph 3.5 mph 62 % 0.00 in
13:25 72.5 °F 58.3 °F 30.27 in NNE 1.3 mph 3.5 mph 61 % 0.00 in
13:30 72.5 °F 57.4 °F 30.27 in ENE 1.0 mph 2.3 mph 59 % 0.00 in
13:35 72.4 °F 56.3 °F 30.27 in ENE 0.4 mph 3.5 mph 57 % 0.00 in
13:40 72.7 °F 55.1 °F 30.26 in ENE 0.1 mph 1.2 mph 54 % 0.00 in
13:45 73.1 °F 54.9 °F 30.26 in NNE 1.4 mph 3.5 mph 53 % 0.00 in
13:50 73.3 °F 51.8 °F 30.26 in NNE 0.6 mph 1.2 mph 47 % 0.00 in
13:55 73.5 °F 52.0 °F 30.25 in Calm   2.3 mph 47 % 0.00 in
14:00 73.6 °F 53.3 °F 30.25 in NNE 1.0 mph 2.3 mph 49 % 0.00 in
14:05 73.9 °F 55.2 °F 30.25 in NNE 1.3 mph 2.3 mph 52 % 0.00 in
14:11 74.2 °F 55.4 °F 30.25 in NNE 1.0 mph 3.0 mph 52 % 0.00 in
14:16 74.2 °F 54.4 °F 30.25 in NE 1.0 mph 3.0 mph 50 % 0.00 in
14:21 74.1 °F 54.8 °F 30.25 in Calm   2.0 mph 51 % 0.00 in
14:26 74.2 °F 54.9 °F 30.24 in NE 1.0 mph 3.0 mph 51 % 0.00 in
14:31 74.2 °F 55.4 °F 30.24 in Calm   3.0 mph 52 % 0.00 in
14:36 74.3 °F 55.0 °F 30.25 in NE 1.0 mph 2.0 mph 51 % 0.00 in
14:41 74.3 °F 54.5 °F 30.24 in NE 1.0 mph 3.0 mph 50 % 0.00 in
14:46 74.1 °F 54.3 °F 30.24 in NE 1.0 mph 4.0 mph 50 % 0.00 in
14:51 73.9 °F 53.5 °F 30.24 in NE 1.0 mph 3.0 mph 49 % 0.00 in
14:56 73.7 °F 53.9 °F 30.25 in Calm   3.0 mph 50 % 0.00 in
15:01 73.6 °F 54.9 °F 30.24 in NNE 2.3 mph 3.5 mph 52 % 0.00 in
15:06 73.5 °F 55.3 °F 30.24 in NNE 1.2 mph 2.3 mph 53 % 0.00 in
15:11 73.3 °F 55.1 °F 30.24 in Calm   1.2 mph 53 % 0.00 in
15:16 73.1 °F 54.9 °F 30.24 in NE 1.0 mph 3.5 mph 53 % 0.00 in
15:21 72.8 °F 55.2 °F 30.24 in NE 0.5 mph 1.2 mph 54 % 0.00 in
15:26 72.6 °F 53.4 °F 30.25 in NE 0.2 mph 1.2 mph 51 % 0.00 in
15:31 72.3 °F 53.2 °F 30.25 in ENE 1.3 mph 3.5 mph 51 % 0.00 in
15:36 72.0 °F 52.9 °F 30.25 in NNE 0.1 mph 1.2 mph 51 % 0.00 in
15:41 71.9 °F 53.8 °F 30.25 in NNE 0.7 mph 2.0 mph 53 % 0.00 in
15:47 71.7 °F 54.2 °F 30.25 in North 2.1 mph 3.5 mph 54 % 0.00 in
15:52 71.6 °F 54.6 °F 30.25 in North 1.4 mph 3.5 mph 55 % 0.00 in
15:57 71.4 °F 54.4 °F 30.25 in North 0.1 mph 1.2 mph 55 % 0.00 in
16:02 71.2 °F 53.7 °F 30.25 in North 0.6 mph 2.3 mph 54 % 0.00 in
16:07 71.1 °F 55.1 °F 30.25 in NNE 0.2 mph 1.2 mph 57 % 0.00 in
16:12 70.8 °F 55.3 °F 30.25 in NNE 0.3 mph 2.3 mph 58 % 0.00 in
16:17 70.6 °F 54.6 °F 30.24 in NNE 0.8 mph 2.3 mph 57 % 0.00 in
16:22 70.4 °F 54.9 °F 30.25 in Calm   2.3 mph 58 % 0.00 in
16:27 70.2 °F 54.7 °F 30.24 in NNE 0.5 mph 2.0 mph 58 % 0.00 in
16:32 70.0 °F 54.1 °F 30.24 in NNE 0.1 mph 1.2 mph 57 % 0.00 in
16:38 69.8 °F 52.9 °F 30.24 in Calm     55 % 0.00 in
16:43 69.7 °F 52.3 °F 30.24 in NNE 0.5 mph 3.5 mph 54 % 0.00 in
16:48 69.5 °F 53.1 °F 30.24 in NNE 1.5 mph 3.5 mph 56 % 0.00 in
16:53 69.4 °F 52.5 °F 30.24 in NNE 1.6 mph 3.0 mph 55 % 0.00 in
16:58 69.2 °F 52.3 °F 30.24 in NNE 1.0 mph 2.3 mph 55 % 0.00 in
17:03 69.1 °F 51.8 °F 30.24 in NNE 1.6 mph 3.5 mph 54 % 0.00 in
17:08 69.0 °F 52.6 °F 30.24 in Calm     56 % 0.00 in
17:13 68.9 °F 52.6 °F 30.24 in NNE 0.2 mph 1.2 mph 56 % 0.00 in
17:18 68.8 °F 52.9 °F 30.24 in Calm     57 % 0.00 in
17:23 68.7 °F 51.9 °F 30.24 in Calm     55 % 0.00 in
17:29 68.6 °F 52.3 °F 30.24 in Calm     56 % 0.00 in
17:34 68.4 °F 52.6 °F 30.24 in Calm     57 % 0.00 in
17:39 68.3 °F 52.9 °F 30.25 in Calm     58 % 0.00 in
17:44 68.1 °F 53.2 °F 30.25 in Calm     59 % 0.00 in
17:49 67.9 °F 53.5 °F 30.25 in Calm   1.0 mph 60 % 0.00 in
17:54 67.8 °F 53.9 °F 30.25 in Calm     61 % 0.00 in
17:59 67.7 °F 53.8 °F 30.24 in Calm     61 % 0.00 in
18:04 67.4 °F 53.9 °F 30.25 in Calm     62 % 0.00 in
18:09 67.2 °F 53.7 °F 30.24 in Calm     62 % 0.00 in
18:14 66.9 °F 53.9 °F 30.25 in Calm     63 % 0.00 in
18:20 66.5 °F 53.9 °F 30.25 in Calm   1.2 mph 64 % 0.00 in
18:25 66.1 °F 53.6 °F 30.25 in Calm     64 % 0.00 in
18:30 65.6 °F 53.9 °F 30.25 in Calm     66 % 0.00 in
18:35 65.3 °F 54.5 °F 30.25 in Calm     68 % 0.00 in
18:40 65.0 °F 56.1 °F 30.25 in SSE 0.3 mph 1.2 mph 73 % 0.00 in
18:45 64.8 °F 57.1 °F 30.25 in Calm     76 % 0.00 in
18:50 64.5 °F 57.5 °F 30.26 in Calm     78 % 0.00 in
18:55 64.3 °F 57.6 °F 30.26 in Calm   2.3 mph 79 % 0.00 in
19:00 64.1 °F 57.8 °F 30.26 in Calm     80 % 0.00 in
19:05 63.9 °F 57.6 °F 30.26 in Calm     80 % 0.00 in
19:10 63.7 °F 57.7 °F 30.26 in Calm   2.0 mph 81 % 0.00 in
19:16 63.5 °F 57.6 °F 30.26 in Calm   1.0 mph 81 % 0.00 in
19:21 63.2 °F 57.3 °F 30.26 in SSE 1.0 mph 4.0 mph 81 % 0.00 in
19:25 63.0 °F 57.4 °F 30.26 in Calm   1.0 mph 82 % 0.00 in
19:31 62.8 °F 57.2 °F 30.26 in Calm   2.0 mph 82 % 0.00 in
19:36 62.6 °F 57.4 °F 30.26 in Calm   2.0 mph 83 % 0.00 in
19:41 62.3 °F 57.1 °F 30.26 in Calm   1.0 mph 83 % 0.00 in
19:46 62.2 °F 57.0 °F 30.26 in Calm   1.2 mph 83 % 0.00 in
19:51 62.0 °F 56.8 °F 30.26 in SSE 0.2 mph 1.2 mph 83 % 0.00 in
19:56 61.9 °F 56.7 °F 30.26 in SSE 0.1 mph 1.2 mph 83 % 0.00 in
20:01 61.7 °F 56.5 °F 30.27 in SSE 0.7 mph 2.0 mph 83 % 0.00 in
20:06 61.6 °F 56.7 °F 30.27 in Calm   1.0 mph 84 % 0.00 in
20:11 61.4 °F 56.5 °F 30.27 in South 0.3 mph 1.2 mph 84 % 0.00 in
20:16 61.3 °F 56.4 °F 30.27 in South 0.2 mph 1.2 mph 84 % 0.00 in
20:21 61.1 °F 56.2 °F 30.27 in South 0.8 mph 2.3 mph 84 % 0.00 in
20:26 61.0 °F 56.5 °F 30.27 in South 0.1 mph 1.2 mph 85 % 0.00 in
20:31 60.8 °F 56.3 °F 30.28 in South 0.2 mph 1.2 mph 85 % 0.00 in
20:37 60.7 °F 56.2 °F 30.28 in Calm   1.0 mph 85 % 0.00 in
20:42 60.5 °F 56.3 °F 30.27 in Calm   1.2 mph 86 % 0.00 in
20:47 60.4 °F 56.2 °F 30.27 in Calm   1.2 mph 86 % 0.00 in
20:52 60.2 °F 56.3 °F 30.28 in Calm   1.0 mph 87 % 0.00 in
20:57 60.2 °F 56.3 °F 30.28 in Calm   1.2 mph 87 % 0.00 in
21:02 60.0 °F 56.1 °F 30.28 in SW 0.7 mph 2.3 mph 87 % 0.00 in
21:07 59.9 °F 56.0 °F 30.28 in SW 0.2 mph 1.2 mph 87 % 0.00 in
21:12 59.8 °F 55.9 °F 30.28 in SW 0.1 mph 1.2 mph 87 % 0.00 in
21:17 59.6 °F 56.0 °F 30.28 in SW 0.4 mph 1.2 mph 88 % 0.00 in
21:22 59.5 °F 55.9 °F 30.28 in Calm   1.2 mph 88 % 0.00 in
21:28 59.4 °F 56.2 °F 30.28 in SW 0.4 mph 1.2 mph 89 % 0.00 in
21:33 59.3 °F 56.1 °F 30.28 in Calm     89 % 0.00 in
21:38 59.2 °F 55.6 °F 30.28 in Calm     88 % 0.00 in
21:43 59.1 °F 55.9 °F 30.28 in Calm     89 % 0.00 in
21:48 59.0 °F 55.8 °F 30.28 in Calm     89 % 0.00 in
21:53 58.9 °F 55.7 °F 30.28 in Calm   1.2 mph 89 % 0.00 in
21:58 58.8 °F 55.6 °F 30.28 in SW 0.2 mph 1.2 mph 89 % 0.00 in
22:03 58.7 °F 55.5 °F 30.28 in Calm     89 % 0.00 in
22:08 58.5 °F 55.3 °F 30.28 in SW 0.2 mph 1.2 mph 89 % 0.00 in
22:13 58.4 °F 55.2 °F 30.28 in Calm   1.2 mph 89 % 0.00 in
22:19 58.3 °F 55.4 °F 30.28 in SW 1.1 mph 3.5 mph 90 % 0.00 in
22:24 58.3 °F 55.4 °F 30.28 in SW 0.1 mph 3.5 mph 90 % 0.00 in
22:29 58.1 °F 55.2 °F 30.29 in Calm     90 % 0.00 in
22:34 58.0 °F 55.1 °F 30.29 in Calm     90 % 0.00 in
22:39 57.9 °F 55.0 °F 30.29 in Calm     90 % 0.00 in
22:44 57.7 °F 54.8 °F 30.29 in Calm     90 % 0.00 in
22:49 57.5 °F 54.3 °F 30.29 in Calm     89 % 0.00 in
22:54 57.3 °F 54.1 °F 30.29 in Calm     89 % 0.00 in
22:59 57.1 °F 53.9 °F 30.29 in Calm     89 % 0.00 in
23:04 56.9 °F 53.7 °F 30.29 in Calm     89 % 0.00 in
23:10 56.7 °F 53.5 °F 30.29 in Calm     89 % 0.00 in
23:15 56.6 °F 53.4 °F 30.29 in Calm     89 % 0.00 in
23:20 56.4 °F 53.2 °F 30.29 in Calm     89 % 0.00 in
23:25 56.3 °F 53.1 °F 30.29 in Calm     89 % 0.00 in
23:30 56.1 °F 52.9 °F 30.29 in Calm     89 % 0.00 in
23:35 55.9 °F 53.0 °F 30.29 in Calm     90 % 0.00 in
23:40 55.8 °F 52.9 °F 30.29 in Calm     90 % 0.00 in
23:45 55.7 °F 52.8 °F 30.29 in Calm     90 % 0.00 in
23:50 55.5 °F 52.6 °F 30.28 in Calm     90 % 0.00 in
23:55 55.4 °F 52.5 °F 30.29 in Calm     90 % 0.00 in
Crab Meadow Weather
Compliments of Weather Underground - 3 mb

Script developed by  Jim McMurry - jmcmurry@mwt.net Adapted for the template by  Wim van der Kuil - Leuven-Template.eu

Weather Terms: Watch - A watch is used when the risk of a hazardous weather or hydrologic event has increased significantly, but its occurrence, location or timing is still uncertain. It is intended to provide enough lead time so those who need to set their plans in motion can do so. A watch means that hazardous weather is possible. People should have a plan of action in case a storm threatens and they should listen for later information and possible warnings especially when planning travel or outdoor activities.